Walhalla, ND

2:36 AM CDT on May 01, 2017 (GMT -0500)
Walhalla

Weather History for K96D - February, 2014

Change the Weather History Date:

Saturday, February 1, 2014

  Actual Average (KGAF) Record (KGAF)
Temperature  
Mean Temperature -2 °F -  
Max Temperature 6 °F 14 °F 40 °F (1952)
Min Temperature -9 °F -3 °F -35 °F (1959)
Degree Days  
Heating Degree Days 66    
Moisture  
Dew Point -6 °F    
Average Humidity 75    
Maximum Humidity 85    
Minimum Humidity 61    
Precipitation  
Precipitation 0.00 in - - ()
Sea Level Pressure  
Sea Level Pressure 30.05 in    
Wind  
Wind Speed 10 mph (NW)    
Max Wind Speed 18 mph    
Max Gust Speed 21 mph    
Visibility 10 miles    
Events Snow    
Averages and records for this station are not official NWS values.
T = Trace of Precipitation, MM = Missing Value Source: NWS Daily Summary

Daily Weather History Graph

Daily Weather History Graph

Search for Another Location

Airport or City:

Trip Planner

Search our weather history database for the weather conditions in past years. The results will help you decide how hot, cold, wet, or windy it might be!

Date:

Astronomy

Feb. 01, 2014 Rise Set
Actual Time 8:01 AM CST 5:29 PM CST
Civil Twilight 7:27 AM CST 6:03 PM CST
Nautical Twilight 6:49 AM CST 6:41 PM CST
Astronomical Twilight 6:12 AM CST 7:18 PM CST
Moon 8:37 AM CST 8:23 PM CST
Length of Visible Light 10h 35m
Length of Day
9h 27m
Waxing Crescent, 5% of the Moon is Illuminated
Feb 1
Waxing Crescent
Feb 6
First Quarter
Feb 14
Full
Feb 22
Last Quarter
Mar 1
New

Hourly Weather History & Observations

Time (CST) Temp. Windchill Dew Point Humidity Pressure Visibility Wind Dir Wind Speed Gust Speed Precip Events Conditions
12:15 AM 6.8 °F -6.9 °F 1.4 °F 79% 29.83 in 10.0 mi North 9.2 mph - N/A   Overcast
12:35 AM 6.8 °F -10.7 °F -0.4 °F 72% 29.84 in 10.0 mi North 15.0 mph 20.7 mph N/A   Overcast
12:55 AM 6.8 °F -8.6 °F -0.4 °F 72% 29.85 in 10.0 mi North 11.5 mph - N/A   Overcast
1:15 AM 5.0 °F -12.3 °F -0.4 °F 78% 29.85 in 10.0 mi North 13.8 mph - N/A   Overcast
1:35 AM 5.0 °F -13.0 °F -0.4 °F 78% 29.86 in 10.0 mi North 15.0 mph - N/A   Overcast
1:55 AM 5.0 °F -11.6 °F -0.4 °F 78% 29.87 in 10.0 mi NNW 12.7 mph - N/A Snow Light Snow
2:15 AM 5.0 °F -10.0 °F -0.4 °F 78% 29.88 in 10.0 mi NNW 10.4 mph - N/A Snow Light Snow
2:35 AM 3.2 °F -15.9 °F -0.4 °F 85% 29.89 in 10.0 mi North 16.1 mph - N/A Snow Light Snow
2:55 AM 3.2 °F -17.1 °F -0.4 °F 85% 29.91 in 5.0 mi North 18.4 mph - N/A Snow Light Snow
3:15 AM 1.4 °F -16.9 °F -2.2 °F 85% 29.92 in 7.0 mi North 13.8 mph - N/A Snow Light Snow
3:35 AM 1.4 °F -18.2 °F -2.2 °F 85% 29.93 in 7.0 mi North 16.1 mph 19.6 mph N/A Snow Light Snow
3:55 AM 1.4 °F -16.1 °F -2.2 °F 85% 29.94 in 6.0 mi NNW 12.7 mph - N/A Snow Light Snow
4:15 AM 1.4 °F -15.3 °F -2.2 °F 85% 29.94 in 7.0 mi NNW 11.5 mph - N/A Snow Light Snow
4:35 AM 1.4 °F -13.5 °F -4.0 °F 78% 29.96 in 10.0 mi NNW 9.2 mph - N/A   Overcast
4:55 AM -0.4 °F -17.6 °F -4.0 °F 85% 29.96 in 10.0 mi NNW 11.5 mph 16.1 mph N/A   Overcast
5:15 AM -0.4 °F -17.6 °F -4.0 °F 85% 29.98 in 10.0 mi NNW 11.5 mph - N/A   Overcast
5:35 AM -0.4 °F -16.7 °F -5.8 °F 78% 29.99 in 10.0 mi NW 10.4 mph - N/A   Overcast
5:55 AM -2.2 °F -19.9 °F -7.6 °F 78% 29.99 in 10.0 mi NW 11.5 mph - N/A   Scattered Clouds
6:15 AM -2.2 °F -15.6 °F -7.6 °F 78% 30.01 in 10.0 mi NW 6.9 mph - N/A   Clear
6:35 AM -2.2 °F -16.8 °F -9.4 °F 71% 30.01 in 10.0 mi NW 8.1 mph - N/A   Clear
6:55 AM -4.0 °F -20.2 °F -9.4 °F 78% 30.02 in 10.0 mi WNW 9.2 mph - N/A   Clear
7:15 AM -4.0 °F -17.8 °F -11.2 °F 71% 30.03 in 10.0 mi NW 6.9 mph - N/A   Clear
7:35 AM -4.0 °F -17.8 °F -11.2 °F 71% 30.04 in 10.0 mi NW 6.9 mph - N/A   Clear
7:55 AM -4.0 °F -17.8 °F -11.2 °F 71% 30.04 in 10.0 mi WNW 6.9 mph - N/A   Clear
8:15 AM -4.0 °F -19.0 °F -11.2 °F 71% 30.05 in 10.0 mi WNW 8.1 mph - N/A   Clear
8:35 AM -4.0 °F -19.0 °F -11.2 °F 71% 30.05 in 10.0 mi WNW 8.1 mph - N/A   Scattered Clouds
8:55 AM -2.2 °F -16.8 °F -9.4 °F 71% 30.06 in 10.0 mi WNW 8.1 mph - N/A   Overcast
9:15 AM -0.4 °F -16.7 °F -7.6 °F 72% 30.06 in 10.0 mi NW 10.4 mph - N/A   Overcast
9:35 AM -0.4 °F -16.7 °F -7.6 °F 72% 30.07 in 10.0 mi NW 10.4 mph - N/A   Overcast
9:55 AM -0.4 °F -17.6 °F -7.6 °F 72% 30.08 in 10.0 mi NW 11.5 mph - N/A   Overcast
10:15 AM -0.4 °F -16.7 °F -7.6 °F 72% 30.08 in 10.0 mi NW 10.4 mph - N/A   Overcast
10:35 AM -0.4 °F -17.6 °F -5.8 °F 78% 30.08 in 10.0 mi NW 11.5 mph - N/A   Overcast
10:55 AM 1.4 °F -16.1 °F -4.0 °F 78% 30.09 in 10.0 mi NW 12.7 mph - N/A Snow Light Snow
11:15 AM 1.4 °F -16.1 °F -4.0 °F 78% 30.09 in 10.0 mi NW 12.7 mph - N/A   Overcast
11:35 AM 1.4 °F -14.5 °F -4.0 °F 78% 30.09 in 10.0 mi NNW 10.4 mph - N/A   Overcast
11:55 AM 1.4 °F -14.5 °F -4.0 °F 78% 30.10 in 10.0 mi NNW 10.4 mph - N/A   Mostly Cloudy
12:15 PM 1.4 °F -12.5 °F -4.0 °F 78% 30.10 in 10.0 mi NW 8.1 mph - N/A   Overcast
12:35 PM 3.2 °F -11.3 °F -4.0 °F 72% 30.10 in 10.0 mi NW 9.2 mph - N/A   Mostly Cloudy
12:55 PM 3.2 °F -10.3 °F -4.0 °F 72% 30.10 in 10.0 mi NNW 8.1 mph - N/A   Mostly Cloudy
1:15 PM 3.2 °F -11.3 °F -4.0 °F 72% 30.10 in 10.0 mi NW 9.2 mph - N/A   Scattered Clouds
1:35 PM 5.0 °F -10.0 °F -4.0 °F 66% 30.09 in 10.0 mi NNW 10.4 mph - N/A   Partly Cloudy
1:55 PM 5.0 °F -9.1 °F -4.0 °F 66% 30.09 in 10.0 mi NNW 9.2 mph - N/A   Clear
2:15 PM 5.0 °F -8.1 °F -4.0 °F 66% 30.09 in 10.0 mi NNW 8.1 mph - N/A   Clear
2:35 PM 5.0 °F -6.9 °F -4.0 °F 66% 30.09 in 10.0 mi NW 6.9 mph - N/A   Mostly Cloudy
2:55 PM 5.0 °F -8.1 °F -4.0 °F 66% 30.10 in 10.0 mi NW 8.1 mph - N/A   Overcast
3:15 PM 5.0 °F -4.1 °F -4.0 °F 66% 30.10 in 10.0 mi WNW 4.6 mph - N/A   Overcast
3:35 PM 5.0 °F -5.6 °F -4.0 °F 66% 30.11 in 10.0 mi NW 5.8 mph - N/A   Overcast
3:55 PM 5.0 °F -8.1 °F -4.0 °F 66% 30.12 in 10.0 mi NW 8.1 mph - N/A   Overcast
4:15 PM 5.0 °F -6.9 °F -5.8 °F 61% 30.12 in 10.0 mi NW 6.9 mph - N/A   Mostly Cloudy
4:35 PM 3.2 °F -7.8 °F -5.8 °F 66% 30.12 in 10.0 mi NW 5.8 mph - N/A   Mostly Cloudy
4:55 PM 1.4 °F -6.2 °F -4.0 °F 78% 30.12 in 10.0 mi NW 3.5 mph - N/A   Overcast
5:15 PM 3.2 °F -9.1 °F -4.0 °F 72% 30.12 in 10.0 mi WNW 6.9 mph - N/A   Overcast
5:35 PM 1.4 °F -8.3 °F -4.0 °F 78% 30.12 in 10.0 mi WNW 4.6 mph - N/A   Mostly Cloudy
5:55 PM -0.4 °F -10.4 °F -7.6 °F 72% 30.13 in 10.0 mi WNW 4.6 mph - N/A   Partly Cloudy
6:15 PM -0.4 °F -8.3 °F -9.4 °F 66% 30.13 in 10.0 mi WNW 3.5 mph - N/A   Scattered Clouds
6:35 PM -2.2 °F -12.5 °F -7.6 °F 78% 30.13 in - West 4.6 mph - N/A   Mostly Cloudy
6:55 PM -2.2 °F -10.4 °F -9.4 °F 71% 30.14 in - West 3.5 mph - N/A   Mostly Cloudy
7:15 PM -2.2 °F -12.5 °F -9.4 °F 71% 30.13 in - WSW 4.6 mph - N/A   Mostly Cloudy
7:35 PM -4.0 °F -14.6 °F -11.2 °F 71% 30.14 in - West 4.6 mph - N/A   Mostly Cloudy
7:55 PM -4.0 °F -14.6 °F -11.2 °F 71% 30.14 in - West 4.6 mph - N/A   Mostly Cloudy
8:15 PM -4.0 °F -14.6 °F -9.4 °F 78% 30.14 in - West 4.6 mph - N/A   Mostly Cloudy
8:35 PM -4.0 °F - -9.4 °F 78% 30.13 in - Calm Calm - N/A   Mostly Cloudy
8:55 PM -4.0 °F - -9.4 °F 78% 30.13 in - Calm Calm - N/A   Partly Cloudy
9:15 PM -4.0 °F -12.4 °F -9.4 °F 78% 30.13 in - WSW 3.5 mph - N/A   Scattered Clouds
9:35 PM -4.0 °F -14.6 °F -9.4 °F 78% 30.13 in - West 4.6 mph - N/A   Scattered Clouds
9:55 PM -2.2 °F -12.5 °F -7.6 °F 78% 30.13 in - WSW 4.6 mph - N/A   Unknown
10:15 PM -4.0 °F -14.6 °F -9.4 °F 78% 30.13 in - West 4.6 mph - N/A   Mostly Cloudy
10:35 PM -9.4 °F - -13.0 °F 84% 30.13 in - Calm Calm - N/A   Mostly Cloudy
10:55 PM -9.4 °F -20.9 °F -13.0 °F 84% 30.13 in - SW 4.6 mph - N/A   Unknown
11:15 PM -9.4 °F - -13.0 °F 84% 30.12 in - Calm Calm - N/A   Overcast
11:35 PM -9.4 °F -18.6 °F -13.0 °F 84% 30.12 in - West 3.5 mph - N/A   Unknown
11:55 PM -9.4 °F - -13.0 °F 84% 30.12 in - Calm Calm - N/A   Mostly Cloudy